AKST,Max TemperatureF,Mean TemperatureF,Min TemperatureF,Max Dew PointF,MeanDew PointF,Min DewpointF,Max Humidity, Mean Humidity, Min Humidity, Max Sea Level PressureIn, Mean Sea Level PressureIn, Min Sea Level PressureIn, Max VisibilityMiles, Mean VisibilityMiles, Min VisibilityMiles, Max Wind SpeedMPH, Mean Wind SpeedMPH, Max Gust SpeedMPH,PrecipitationIn, CloudCover, Events, WindDirDegrees
2012-11-1,8,-2,-12,2,-9,-18,85,79,76,30.16,30.11,30.04,10,8,1,4,1,,0.00,0,Snow,230
2012-11-2,9,-6,-20,4,-16,-27,84,77,69,30.10,29.86,29.65,10,9,2,4,0,,0.00,3,,150
2012-11-3,16,11,6,11,7,1,85,77,62,29.73,29.68,29.65,10,7,2,12,6,,0.02,8,Snow,34
2012-11-4,15,10,1,9,6,-3,86,79,63,29.83,29.73,29.69,10,9,3,10,4,,0.00,8,Snow,332
2012-11-5,3,-8,-20,0,-13,-27,85,78,70,30.28,30.00,29.85,10,8,2,6,2,,0.00,5,Snow,168
2012-11-6,-9,-18,-27,-15,-27,-30,91,77,70,30.56,30.44,30.30,10,10,10,4,0,,0.00,1,,170
2012-11-7,-11,-20,-28,-17,-27,-30,94,80,70,30.61,30.59,30.56,10,10,4,4,0,,0.00,0,Fog,160
2012-11-8,0,-14,-26,-5,-21,-30,85,77,73,30.58,30.41,30.24,10,10,10,5,0,,0.00,1,,355
2012-11-9,15,8,1,12,5,-3,86,80,68,30.20,29.97,29.81,10,10,10,7,1,,0.00,6,,2
2012-11-10,21,18,13,19,16,10,93,88,82,29.81,29.73,29.71,10,5,2,5,1,,0.06,8,Snow,3
2012-11-11,14,0,-13,12,3,-19,93,85,75,30.05,29.84,29.73,10,7,1,0,0,,0.00,6,Snow,-1
2012-11-12,3,-6,-14,0,-5,-21,85,82,70,30.27,30.22,30.06,10,8,3,0,0,,0.00,8,Snow,-1
2012-11-13,0,-8,-17,-5,-13,-23,85,79,70,30.28,30.20,29.82,10,9,3,0,0,,0.00,5,Snow,-1
2012-11-14,10,2,-6,4,-2,-12,83,78,62,29.80,29.70,29.62,10,10,10,6,0,,0.00,7,Snow,55
2012-11-15,9,-6,-21,3,-8,-28,81,68,57,30.12,29.91,29.74,10,10,10,9,3,,0.00,1,Snow,26
2012-11-16,-17,-24,-33,-23,-28,-30,100,78,72,30.22,30.18,30.09,10,10,6,6,0,,0.00,0,,155
2012-11-17,-2,-18,-34,-14,-17,-30,80,59,52,30.06,29.83,29.67,10,10,10,12,3,,0.00,1,,43
2012-11-18,-1,-10,-23,-16,-19,-30,74,52,48,29.93,29.77,29.66,10,10,10,15,9,,0.00,2,,35
2012-11-19,0,-10,-21,-12,-16,-28,71,54,47,30.04,30.00,29.94,10,10,10,16,7,,0.00,2,Snow,42
2012-11-20,-5,-14,-24,-12,-23,-30,78,74,70,30.09,30.04,30.01,10,10,10,5,1,,0.00,2,,165
2012-11-21,-6,-16,-26,-12,-18,-30,82,76,72,30.17,30.12,30.08,10,10,10,0,0,,0.00,8,,-1
2012-11-22,1,-8,-17,-8,-15,-24,80,75,64,30.19,30.14,30.02,10,10,10,8,0,,0.00,2,,105
2012-11-23,3,-10,-22,-8,-19,-30,78,70,59,30.14,30.04,29.98,10,10,10,16,6,,0.00,0,,39
2012-11-24,-14,-20,-25,-22,-28,-30,78,73,69,30.28,30.19,30.15,10,10,10,0,0,,0.00,0,Snow,-1
2012-11-25,-16,-20,-25,-23,-28,-30,81,73,69,30.49,30.41,30.30,10,10,10,6,0,,0.00,0,,170
2012-11-26,-14,-19,-24,-20,-26,-30,76,72,68,30.49,30.39,30.29,10,10,9,6,1,,0.00,0,,170
2012-11-27,-16,-21,-26,-23,-28,-30,85,73,69,30.43,30.34,30.27,10,10,10,4,0,,0.00,0,,170
2012-11-28,-22,-26,-30,-30,-30,-30,99,89,69,30.42,30.34,30.25,10,10,6,4,0,,0.00,0,,170
2012-11-29,-23,-27,-31,-29,-30,-30,100,92,72,30.26,30.23,30.21,10,10,10,7,0,,0.00,0,Snow,168
2012-11-30,-26,-30,-34,-30,-30,-30,91,86,81,30.25,30.19,30.11,10,9,6,5,1,,0.00,0,,148